SDM601 UUWW-UUDD

Flight info

Callsign SDM601
Flight time N/A
Altitude 4000
Route ULGIV DCT DUZZU DCT LUTGE/K0207F030 DCT UMDUS DCT ESEBE DCT 5552N03724E DCT SAGVE DCT OKPUV DCT EMBOG DCT TRIAR DCT ELLEZ DCT NAGGO DCT 5547N03751E
Aircraft C172/L-SFG/C

Departure

Time 2026-05-05 10:48
Airport Vnukovo International Airport (UUWW)

Arrival

Time N/A
Airport Domodedovo International Airport (UUDD)
Time Latitude Longitude Altitude Speed Heading
2026-05-05 10:39 55.60026 37.28009 675 ft 0 kts 18°
2026-05-05 10:43 55.60050 37.28023 675 ft 5 kts 19°
2026-05-05 10:43 55.60065 37.28073 675 ft 5 kts 109°
2026-05-05 10:43 55.60075 37.28138 675 ft 6 kts 94°
2026-05-05 10:43 55.60079 37.28235 674 ft 13 kts 83°
2026-05-05 10:44 55.60125 37.28488 674 ft 26 kts 49°
2026-05-05 10:44 55.60204 37.28714 674 ft 18 kts 119°
2026-05-05 10:44 55.60122 37.28851 674 ft 14 kts 146°
2026-05-05 10:44 55.60040 37.28899 676 ft 9 kts 162°
2026-05-05 10:45 55.60004 37.28916 679 ft 1 kts 166°
2026-05-05 10:45 55.59976 37.28928 680 ft 7 kts 167°
2026-05-05 10:45 55.59937 37.28945 680 ft 5 kts 163°
2026-05-05 10:45 55.59918 37.28955 680 ft 0 kts 164°
2026-05-05 10:46 55.59892 37.28965 682 ft 13 kts 170°
2026-05-05 10:46 55.59788 37.28954 686 ft 13 kts 229°
2026-05-05 10:46 55.59706 37.28596 683 ft 56 kts 251°
2026-05-05 10:47 55.59513 37.27748 702 ft 87 kts 247°
2026-05-05 10:47 55.59250 37.26751 828 ft 95 kts 247°
2026-05-05 10:47 55.59050 37.25606 922 ft 101 kts 251°
2026-05-05 10:47 55.58830 37.24422 1050 ft 102 kts 252°
2026-05-05 10:48 55.58609 37.23229 1177 ft 102 kts 252°
2026-05-05 10:48 55.58387 37.22033 1301 ft 102 kts 252°
2026-05-05 10:48 55.58166 37.20839 1426 ft 102 kts 252°
2026-05-05 10:48 55.57946 37.19647 1550 ft 102 kts 251°
2026-05-05 10:49 55.57726 37.18458 1674 ft 101 kts 252°
2026-05-05 10:49 55.57508 37.17278 1811 ft 100 kts 252°
2026-05-05 10:49 55.57292 37.16122 1958 ft 98 kts 252°
2026-05-05 10:49 55.57080 37.14978 2104 ft 97 kts 252°
2026-05-05 10:50 55.56871 37.13848 2253 ft 96 kts 251°
2026-05-05 10:50 55.56663 37.12724 2402 ft 96 kts 252°
2026-05-05 10:50 55.56456 37.11608 2550 ft 95 kts 251°
2026-05-05 10:50 55.56249 37.10495 2698 ft 95 kts 251°
2026-05-05 10:51 55.56044 37.09388 2848 ft 95 kts 251°
2026-05-05 10:51 55.55840 37.08287 2997 ft 94 kts 252°
2026-05-05 10:51 55.55640 37.07205 3143 ft 94 kts 252°
2026-05-05 10:51 55.55438 37.06113 3292 ft 93 kts 252°
2026-05-05 10:52 55.55237 37.05030 3440 ft 92 kts 252°
2026-05-05 10:52 55.55039 37.03959 3598 ft 90 kts 252°
2026-05-05 10:52 55.54846 37.02917 3766 ft 88 kts 252°
2026-05-05 10:52 55.54658 37.01907 3935 ft 86 kts 252°
2026-05-05 10:53 55.54475 37.00920 4101 ft 84 kts 252°
2026-05-05 10:53 55.54284 36.99878 4149 ft 96 kts 252°
2026-05-05 10:53 55.54068 36.98700 4152 ft 105 kts 252°
2026-05-05 10:53 55.54044 36.97410 4154 ft 111 kts 295°
2026-05-05 10:54 55.54572 36.96432 4148 ft 116 kts 334°
2026-05-05 10:54 55.55367 36.96358 4150 ft 118 kts 19°
2026-05-05 10:54 55.55967 36.97307 4147 ft 119 kts 64°
2026-05-05 10:54 55.56286 36.98649 4148 ft 119 kts 68°
2026-05-05 10:55 55.56755 36.99817 4129 ft 120 kts 28°
2026-05-05 10:55 55.57555 37.00137 4134 ft 119 kts 28°
2026-05-05 10:55 55.58215 37.01003 4145 ft 118 kts 36°
2026-05-05 10:55 55.58881 37.01862 4147 ft 119 kts 37°
2026-05-05 10:56 55.59546 37.02728 4147 ft 119 kts 37°
2026-05-05 10:56 55.60210 37.03594 4147 ft 119 kts 37°
2026-05-05 10:56 55.60875 37.04462 4148 ft 119 kts 37°
2026-05-05 10:56 55.61541 37.05331 4147 ft 119 kts 37°
2026-05-05 10:57 55.62206 37.06199 4149 ft 119 kts 37°
2026-05-05 10:57 55.62872 37.07067 4147 ft 119 kts 37°
2026-05-05 10:57 55.63529 37.07926 4148 ft 119 kts 37°
2026-05-05 10:57 55.64197 37.08799 4146 ft 120 kts 37°
2026-05-05 10:58 55.64866 37.09675 4144 ft 119 kts 37°
2026-05-05 10:58 55.65308 37.10875 4145 ft 119 kts 72°
2026-05-05 10:58 55.65613 37.12234 4150 ft 120 kts 68°
2026-05-05 10:58 55.65954 37.13605 4146 ft 122 kts 66°
2026-05-05 10:59 55.66311 37.14957 4142 ft 121 kts 66°
2026-05-05 10:59 55.66671 37.16293 4141 ft 120 kts 65°
2026-05-05 10:59 55.67032 37.17620 4140 ft 119 kts 65°
2026-05-05 10:59 55.67392 37.18943 4140 ft 119 kts 65°
2026-05-05 11:00 55.67595 37.19685 4139 ft 119 kts 65°